KB1DML-3 Weather Reports


Display with metric or nautical units.
time (UTC)temp
F
wind
direction
speed
MPH
gust
MPH
rain 1hr
in
rain 24hr
in
rain mn
in
humidity
%
barometer
mb
20260903084016 67 180 19.0 22.0 0.00 0.00 0.00 84 1013.7
20260903083516 67 180 19.0 23.0 0.00 0.00 0.00 84 1013.7
20260903083016 67 180 19.0 23.0 0.00 0.00 0.00 84 1013.8
20260903082516 67 180 19.0 23.0 0.00 0.00 0.00 84 1014.0
20260903082016 67 180 18.0 20.0 0.00 0.00 0.00 84 1014.1
20260903081516 67 180 16.0 20.0 0.00 0.00 0.00 84 1014.3
20260903081016 67 180 17.0 20.0 0.00 0.00 0.00 84 1014.3
20260903080516 67 180 17.0 20.0 0.00 0.00 0.00 84 1014.3
20260903080036 67 180 18.0 20.0 0.00 0.00 0.00 83 1014.1
20260903075536 67 180 18.0 22.0 0.00 0.00 0.00 83 1014.1
20260903075015 67 180 18.0 21.0 0.00 0.00 0.00 84 1014.2
20260903074516 67 180 19.0 23.0 0.00 0.00 0.00 84 1014.3
20260903074016 67 180 18.0 23.0 0.00 0.00 0.00 83 1014.2
20260903073516 67 180 19.0 22.0 0.00 0.00 0.00 83 1014.3
20260903073015 67 180 18.0 21.0 0.00 0.00 0.00 83 1014.5
20260903072536 67 180 18.0 21.0 0.00 0.00 0.00 83 1014.6
20260903071516 67 180 17.0 20.0 0.00 0.00 0.00 82 1014.8
20260903071015 67 180 18.0 21.0 0.00 0.00 0.00 82 1014.9
20260903070516 67 180 19.0 22.0 0.00 0.00 0.00 81 1014.8
20260903070016 67 180 17.0 21.0 0.00 0.00 0.00 81 1015.1
20260903065516 67 180 16.0 19.0 0.00 0.00 0.00 80 1015.3
20260903065015 67 180 17.0 21.0 0.00 0.00 0.00 80 1015.3
20260903064516 67 180 17.0 20.0 0.00 0.00 0.00 80 1015.4
20260903064016 67 180 17.0 19.0 0.00 0.00 0.00 79 1015.6
20260903063516 67 180 16.0 20.0 0.00 0.00 0.00 78 1015.8
20260903063015 67 180 15.0 18.0 0.00 0.00 0.00 79 1016.0
20260903062515 67 180 15.0 19.0 0.00 0.00 0.00 79 1016.1
20260903062016 67 180 15.0 18.0 0.00 0.00 0.00 79 1016.1
20260903061515 67 180 15.0 18.0 0.00 0.00 0.00 78 1016.2
20260903061016 67 180 15.0 18.0 0.00 0.00 0.00 79 1016.3
20260903060515 67 180 17.0 20.0 0.00 0.00 0.00 77 1016.3
20260903060016 67 180 18.0 21.0 0.00 0.00 0.00 77 1016.2
20260903055516 67 180 17.0 20.0 0.00 0.00 0.00 79 1016.4
20260903055036 67 180 17.0 20.0 0.00 0.00 0.00 78 1016.4
20260903054516 67 180 16.0 19.0 0.00 0.00 0.00 79 1016.6
20260903054015 67 180 16.0 19.0 0.00 0.00 0.00 79 1016.6
20260903053516 67 180 16.0 19.0 0.00 0.00 0.00 80 1016.5
20260903053015 67 180 16.0 19.0 0.00 0.00 0.00 82 1016.6
20260903052515 67 180 16.0 20.0 0.00 0.00 0.00 82 1016.5
20260903052016 67 180 14.0 18.0 0.00 0.00 0.00 82 1016.7
20260903051536 67 180 13.0 15.0 0.00 0.00 0.00 82 1016.9
20260903051016 67 180 13.0 15.0 0.00 0.00 0.00 83 1016.9
20260903050536 67 180 13.0 16.0 0.00 0.00 0.00 83 1016.9
20260903050056 67 180 13.0 16.0 0.00 0.00 0.00 84 1016.8
20260903045556 67 180 14.0 17.0 0.00 0.00 0.00 83 1016.7
20260903045015 67 180 13.0 16.0 0.00 0.00 0.00 83 1016.8
20260903044515 67 180 13.0 16.0 0.00 0.00 0.00 83 1016.8
20260903044016 67 180 12.0 16.0 0.00 0.00 0.00 84 1016.9
20260903043516 67 180 12.0 14.0 0.00 0.00 0.00 83 1017.0
20260903043016 67 180 12.0 15.0 0.00 0.00 0.00 83 1016.9
20260903042515 67 180 11.0 14.0 0.00 0.00 0.00 83 1016.9
20260903042016 67 180 10.0 13.0 0.00 0.00 0.00 83 1017.0
20260903041536 67 180 11.0 12.0 0.00 0.00 0.00 83 1017.0
20260903041016 67 180 11.0 13.0 0.00 0.00 0.00 83 1016.9
20260903040515 67 180 11.0 13.0 0.00 0.00 0.00 83 1017.0
20260903040015 67 180 10.0 12.0 0.00 0.00 0.00 83 1017.1
20260903035516 67 180 9.0 11.0 0.00 0.00 0.00 83 1017.1
20260903035016 67 180 8.0 10.0 0.00 0.00 0.00 83 1017.4
20260903034516 67 180 8.0 10.0 0.00 0.00 0.00 83 1017.4
20260903034036 67 203 9.0 10.0 0.00 0.00 0.00 83 1017.5
20260903033516 67 203 9.0 10.0 0.00 0.00 0.00 83 1017.5
20260903033016 67 180 10.0 12.0 0.00 0.00 0.00 83 1017.5
20260903032516 67 180 10.0 12.0 0.00 0.00 0.00 83 1017.5
20260903032016 67 180 10.0 12.0 0.00 0.00 0.00 83 1017.5
20260903031536 67 180 10.0 12.0 0.00 0.00 0.00 83 1017.7
20260903031016 67 180 10.0 11.0 0.00 0.00 0.00 83 1017.6
20260903030537 67 180 10.0 12.0 0.00 0.00 0.00 83 1017.6
20260903030036 67 180 12.0 15.0 0.00 0.00 0.00 82 1017.4
20260903025516 67 180 12.0 14.0 0.00 0.00 0.00 82 1017.4
20260903025016 67 180 11.0 14.0 0.00 0.00 0.00 82 1017.5
20260903024516 67 180 12.0 14.0 0.00 0.00 0.00 82 1017.5
20260903024015 67 180 13.0 16.0 0.00 0.00 0.00 82 1017.4
20260903023515 67 180 14.0 17.0 0.00 0.00 0.00 82 1017.3
20260903023036 67 180 15.0 17.0 0.00 0.00 0.00 82 1017.3
20260903022515 67 180 14.0 18.0 0.00 0.00 0.00 82 1017.4
20260903022016 67 180 15.0 18.0 0.00 0.00 0.00 82 1017.5
20260903021516 67 180 14.0 17.0 0.00 0.00 0.00 82 1017.7
20260903021016 67 180 13.0 16.0 0.00 0.00 0.00 82 1017.8
20260903020516 67 180 12.0 16.0 0.00 0.00 0.00 82 1018.0
20260903020015 67 180 14.0 16.0 0.00 0.00 0.00 81 1017.8
20260903015516 67 180 15.0 18.0 0.00 0.00 0.00 82 1017.7
20260903015015 67 180 14.0 17.0 0.00 0.00 0.00 82 1017.7
20260903014516 67 180 15.0 18.0 0.00 0.00 0.00 82 1017.6
20260903014016 67 180 15.0 17.0 0.00 0.00 0.00 82 1017.6
20260903013516 67 180 15.0 18.0 0.00 0.00 0.00 82 1017.7
20260903013015 67 180 14.0 16.0 0.00 0.00 0.00 82 1017.6
20260903012515 67 180 13.0 16.0 0.00 0.00 0.00 82 1017.8
20260903012036 67 180 13.0 16.0 0.00 0.00 0.00 82 1017.8
20260903011516 67 180 11.0 13.0 0.00 0.00 0.00 82 1017.9
20260903011016 67 180 11.0 13.0 0.00 0.00 0.00 82 1018.1
20260903010516 67 180 12.0 16.0 0.00 0.00 0.00 82 1018.0
20260903010015 67 180 12.0 14.0 0.00 0.00 0.00 83 1017.9
20260903005536 67 180 12.0 15.0 0.00 0.00 0.00 82 1017.9
20260903005015 67 180 11.0 14.0 0.00 0.00 0.00 83 1018.0
20260903004516 67 180 12.0 14.0 0.00 0.00 0.00 83 1018.1
20260903004015 67 180 12.0 15.0 0.00 0.00 0.00 83 1017.9
20260903003515 67 180 11.0 14.0 0.00 0.00 0.00 83 1018.0
20260903003015 67 180 11.0 13.0 0.00 0.00 0.00 82 1018.0
20260903002516 67 180 11.0 13.0 0.00 0.00 0.00 82 1018.1
20260903002016 67 180 11.0 13.0 0.00 0.00 0.00 82 1018.1
20260903001556 67 180 11.0 13.0 0.00 0.00 0.00 82 1018.3
20260903001016 68 180 10.0 13.0 0.00 0.00 0.00 81 1018.4
20260903000515 68 180 10.0 14.0 0.00 0.00 0.00 81 1018.5
20260903000056 68 180 10.0 13.0 0.00 0.00 0.00 80 1018.6
20260902235516 68 180 10.0 13.0 0.00 0.00 0.00 80 1018.5
20260902235056 68 158 9.0 12.0 0.00 0.00 0.00 81 1018.5
20260902234515 68 158 10.0 13.0 0.00 0.00 0.00 81 1018.2
20260902234015 68 158 9.0 12.0 0.00 0.00 0.00 81 1018.3
20260902233516 68 158 10.0 15.0 0.00 0.00 0.00 80 1018.4
20260902233015 68 158 11.0 13.0 0.00 0.00 0.00 80 1018.4
20260902232515 68 158 11.0 15.0 0.00 0.00 0.00 80 1018.5
20260902232015 68 158 10.0 16.0 0.00 0.00 0.00 80 1018.4
20260902231516 68 158 11.0 14.0 0.00 0.00 0.00 81 1018.5
20260902231015 68 158 10.0 14.0 0.00 0.00 0.00 80 1018.6
20260902230515 68 158 9.0 14.0 0.00 0.00 0.00 80 1018.6
20260902230015 68 158 8.0 11.0 0.00 0.00 0.00 80 1018.7
20260902225515 68 135 7.0 11.0 0.00 0.00 0.00 80 1018.7
20260902225015 68 135 6.0 9.0 0.00 0.00 0.00 81 1018.9
20260902224516 68 135 6.0 9.0 0.00 0.00 0.00 81 1018.9
20260902224016 68 135 5.0 9.0 0.00 0.00 0.00 81 1019.1
20260902223515 68 135 5.0 8.0 0.00 0.00 0.00 81 1019.1
20260902223016 68 158 5.0 9.0 0.00 0.00 0.00 81 1019.1
20260902222516 68 158 5.0 9.0 0.00 0.00 0.00 81 1019.1
20260902222015 68 135 6.0 10.0 0.00 0.00 0.00 81 1019.2
20260902221515 68 135 6.0 9.0 0.00 0.00 0.00 81 1019.2
20260902221015 68 135 6.0 10.0 0.00 0.00 0.00 81 1019.3
20260902220516 69 135 7.0 9.0 0.00 0.00 0.00 81 1019.1
20260902220016 69 135 5.0 9.0 0.00 0.00 0.00 81 1019.2
20260902215537 69 135 7.0 9.0 0.00 0.00 0.00 80 1019.1
20260902215017 69 135 7.0 9.0 0.00 0.00 0.00 81 1019.0
20260902214517 69 135 7.0 9.0 0.00 0.00 0.00 81 1019.1
20260902214059 69 135 7.0 10.0 0.00 0.00 0.00 81 1018.8
20260902213538 69 135 7.0 10.0 0.00 0.00 0.00 81 1018.9
20260902213017 69 135 7.0 10.0 0.00 0.00 0.00 81 1018.9
20260902212517 69 135 6.0 10.0 0.00 0.00 0.00 81 1019.0
20260902212017 69 135 8.0 12.0 0.00 0.00 0.00 81 1018.8
20260902211517 69 135 8.0 12.0 0.00 0.00 0.00 81 1018.9
20260902211017 69 135 9.0 12.0 0.00 0.00 0.00 81 1018.9
20260902210517 69 113 9.0 11.0 0.00 0.00 0.00 81 1019.0
20260902210017 69 113 9.0 11.0 0.00 0.00 0.00 81 1019.0
20260902205538 69 113 9.0 11.0 0.00 0.00 0.00 81 1019.1
20260902205039 69 113 9.0 11.0 0.00 0.00 0.00 81 1019.2
20260902204517 69 113 9.0 11.0 0.00 0.00 0.00 81 1019.3
20260902204017 69 113 8.0 11.0 0.00 0.00 0.00 81 1019.3
20260902203517 69 113 7.0 9.0 0.00 0.00 0.00 81 1019.4
20260902203017 69 113 9.0 10.0 0.00 0.00 0.00 81 1019.4
20260902202517 69 113 9.0 11.0 0.00 0.00 0.00 81 1019.4
20260902202017 69 113 8.0 11.0 0.00 0.00 0.00 81 1019.5
20260902201518 69 113 9.0 11.0 0.00 0.00 0.00 81 1019.4
20260902201017 69 113 9.0 11.0 0.00 0.00 0.00 81 1019.5
20260902200537 69 113 8.0 11.0 0.00 0.00 0.00 80 1019.6
20260902200017 69 113 8.0 11.0 0.00 0.00 0.00 80 1019.6
20260902195518 69 113 9.0 11.0 0.00 0.00 0.00 80 1019.7
20260902195017 70 113 8.0 10.0 0.00 0.00 0.00 80 1019.8
20260902194518 69 113 8.0 11.0 0.00 0.00 0.00 80 1019.8
20260902194017 69 113 9.0 11.0 0.00 0.00 0.00 80 1019.7
20260902193517 69 135 7.0 9.0 0.00 0.00 0.00 80 1019.7
20260902193017 69 113 8.0 10.0 0.00 0.00 0.00 80 1019.7
20260902192517 69 113 9.0 11.0 0.00 0.00 0.00 80 1019.8
20260902192017 70 113 8.0 11.0 0.00 0.00 0.00 80 1019.7
20260902191517 70 113 9.0 11.0 0.00 0.00 0.00 80 1019.7
20260902191018 70 113 9.0 11.0 0.00 0.00 0.00 80 1019.7
20260902190517 70 113 8.0 10.0 0.00 0.00 0.00 80 1019.8
20260902190037 70 113 7.0 10.0 0.00 0.01 0.00 80 1019.8
20260902185517 70 113 8.0 10.0 0.00 0.01 0.00 80 1019.7
20260902185037 70 113 8.0 10.0 0.00 0.01 0.00 80 1019.8
20260902184517 70 113 8.0 9.0 0.00 0.01 0.00 80 1019.8
20260902184017 70 113 7.0 9.0 0.00 0.01 0.00 80 1019.9
20260902183517 70 113 7.0 9.0 0.00 0.01 0.00 80 1019.9
20260902183017 70 113 6.0 9.0 0.00 0.01 0.00 80 1020.0
20260902182517 70 113 6.0 9.0 0.00 0.01 0.00 80 1020.0
20260902182017 69 113 6.0 9.0 0.00 0.01 0.00 80 1020.0
20260902181537 69 113 7.0 10.0 0.00 0.01 0.00 80 1020.0
20260902181017 70 113 7.0 10.0 0.00 0.01 0.00 80 1019.9
20260902180517 70 113 7.0 9.0 0.00 0.01 0.00 80 1019.9
20260902180017 70 113 7.0 10.0 0.00 0.01 0.00 81 1020.0
20260902175517 70 113 8.0 10.0 0.00 0.01 0.00 81 1020.0
20260902175018 70 113 7.0 9.0 0.00 0.01 0.00 81 1019.9
20260902174517 70 113 7.0 9.0 0.00 0.01 0.00 81 1020.0
20260902174017 70 113 6.0 8.0 0.00 0.01 0.00 81 1020.0
20260902173517 70 113 6.0 8.0 0.00 0.01 0.00 81 1020.1
20260902173017 69 113 6.0 8.0 0.00 0.01 0.00 81 1020.1
20260902172517 69 113 7.0 9.0 0.00 0.01 0.00 81 1020.1
20260902172018 69 113 7.0 9.0 0.00 0.01 0.00 82 1020.1
20260902171517 69 113 8.0 9.0 0.00 0.01 0.00 82 1020.0
20260902171017 69 90 7.0 10.0 0.00 0.01 0.00 83 1020.0
20260902170517 69 90 8.0 11.0 0.00 0.01 0.00 83 1020.0
20260902170036 69 90 8.0 11.0 0.00 0.01 0.00 83 1019.9
20260902165538 68 90 9.0 11.0 0.00 0.01 0.00 83 1020.0
20260902165017 68 68 10.0 12.0 0.00 0.01 0.00 83 1020.0
20260902164558 69 68 10.0 12.0 0.00 0.01 0.00 82 1020.1
20260902164037 69 68 10.0 13.0 0.00 0.01 0.00 82 1020.1
20260902163516 69 68 10.0 12.0 0.00 0.01 0.00 82 1020.2
20260902163017 69 90 10.0 13.0 0.00 0.01 0.00 81 1020.1
20260902162517 69 90 10.0 12.0 0.00 0.01 0.00 81 1020.1
20260902162017 69 90 10.0 13.0 0.00 0.01 0.00 79 1020.1
20260902161537 70 90 11.0 13.0 0.00 0.01 0.00 78 1020.3
20260902161017 70 90 10.0 12.0 0.00 0.01 0.00 78 1020.4
20260902160517 70 90 8.0 11.0 0.00 0.01 0.00 78 1020.5
20260902160017 70 90 7.0 9.0 0.00 0.02 0.00 78 1020.5
20260902155517 70 90 7.0 10.0 0.00 0.02 0.00 79 1020.6
20260902155017 70 90 7.0 10.0 0.00 0.02 0.00 79 1020.6
20260902154516 70 113 7.0 9.0 0.00 0.02 0.00 79 1020.6
20260902154038 70 113 7.0 8.0 0.00 0.02 0.00 79 1020.6
20260902153517 70 113 6.0 9.0 0.00 0.02 0.00 79 1020.7
20260902153017 70 113 6.0 8.0 0.00 0.02 0.00 79 1020.7
20260902152518 70 113 6.0 7.0 0.00 0.02 0.00 79 1020.8
20260902152017 70 113 7.0 9.0 0.00 0.02 0.00 79 1020.6
20260902151537 70 113 6.0 9.0 0.00 0.02 0.00 79 1020.6
20260902151037 69 113 8.0 10.0 0.00 0.02 0.00 79 1020.5
20260902150517 69 113 8.0 10.0 0.00 0.02 0.00 79 1020.5
20260902150037 69 113 9.0 12.0 0.00 0.05 0.00 79 1020.4
20260902145557 70 113 8.0 11.0 0.00 0.05 0.00 79 1020.3
20260902145016 70 113 9.0 11.0 0.00 0.05 0.00 79 1020.2
20260902144517 70 113 9.0 11.0 0.00 0.05 0.00 79 1020.2
20260902144017 70 113 9.0 12.0 0.00 0.05 0.00 80 1020.1
20260902143516 69 113 9.0 12.0 0.00 0.05 0.00 80 1020.1
20260902143017 69 113 11.0 13.0 0.00 0.05 0.00 80 1020.1
20260902142537 69 113 10.0 12.0 0.00 0.05 0.00 80 1020.2
20260902142017 69 113 9.0 12.0 0.00 0.05 0.00 80 1020.1
20260902141517 69 113 10.0 12.0 0.00 0.05 0.00 80 1020.0
20260902141016 69 113 10.0 13.0 0.00 0.05 0.00 81 1019.9
20260902140516 69 113 11.0 13.0 0.00 0.05 0.00 81 1019.8
20260902140037 69 113 9.0 12.0 0.00 0.26 0.00 81 1019.9
20260902135517 69 113 10.0 12.0 0.00 0.26 0.00 81 1019.9
20260902135017 69 113 10.0 13.0 0.00 0.26 0.00 81 1020.0
20260902134517 68 113 10.0 12.0 0.00 0.26 0.00 82 1020.0
20260902134016 68 113 9.0 12.0 0.00 0.26 0.00 82 1020.1
20260902133516 68 113 10.0 12.0 0.00 0.26 0.00 83 1020.0
20260902133016 68 113 9.0 11.0 0.00 0.26 0.00 84 1020.1
20260902132516 68 113 9.0 12.0 0.00 0.26 0.00 84 1020.0
20260902132037 68 113 8.0 10.0 0.00 0.26 0.00 85 1020.0
20260902131516 67 113 8.0 10.0 0.00 0.26 0.00 85 1019.9
20260902131016 67 113 8.0 10.0 0.00 0.26 0.00 86 1019.8
20260902130517 67 113 7.0 9.0 0.00 0.26 0.00 87 1019.9
20260902130016 67 113 8.0 10.0 0.00 0.32 0.00 86 1019.9
20260902125517 67 113 9.0 11.0 0.00 0.32 0.00 86 1019.8
20260902125016 67 90 9.0 11.0 0.00 0.32 0.00 86 1020.0
20260902124517 67 90 9.0 11.0 0.00 0.32 0.00 87 1019.9
20260902124016 67 113 9.0 11.0 0.00 0.32 0.00 87 1019.9
20260902123517 67 113 9.0 11.0 0.00 0.32 0.00 87 1019.9
20260902123016 67 90 9.0 12.0 0.00 0.32 0.00 87 1019.9
20260902122538 67 90 9.0 11.0 0.00 0.32 0.00 87 1020.1
20260902122016 67 90 9.0 12.0 0.00 0.32 0.00 87 1020.0
20260902121517 67 90 10.0 12.0 0.00 0.32 0.00 87 1020.0
20260902121016 67 90 11.0 13.0 0.00 0.32 0.00 87 1020.1
20260902120516 66 90 11.0 15.0 0.00 0.32 0.00 87 1020.0
20260902120016 67 90 11.0 14.0 0.00 0.32 0.00 87 1020.1
20260902115537 66 90 12.0 15.0 0.00 0.32 0.00 87 1020.1
20260902115036 67 90 13.0 16.0 0.00 0.32 0.00 87 1020.0
20260902114517 67 90 15.0 17.0 0.00 0.32 0.00 86 1019.8
20260902114016 67 90 15.0 19.0 0.00 0.32 0.00 86 1019.7
20260902113536 67 90 14.0 17.0 0.00 0.32 0.00 86 1019.7
20260902113017 67 90 15.0 17.0 0.00 0.32 0.00 86 1019.7
20260902112516 67 90 15.0 19.0 0.00 0.32 0.00 86 1019.6
20260902112017 67 90 16.0 19.0 0.00 0.32 0.00 86 1019.5
20260902111516 67 90 16.0 19.0 0.00 0.32 0.00 86 1019.5
20260902111016 67 90 16.0 20.0 0.00 0.32 0.00 86 1019.5
20260902110516 67 90 16.0 19.0 0.00 0.32 0.00 86 1019.5
20260902110016 67 90 16.0 19.0 0.00 0.32 0.00 86 1019.5
20260902105516 66 90 16.0 19.0 0.00 0.32 0.00 86 1019.3
20260902105016 66 90 16.0 19.0 0.00 0.32 0.00 86 1019.2
20260902104517 66 90 16.0 18.0 0.00 0.32 0.00 85 1019.3
20260902104016 66 90 16.0 20.0 0.00 0.32 0.00 85 1019.4
20260902103517 66 90 17.0 21.0 0.00 0.32 0.00 85 1019.3
20260902103016 66 90 18.0 21.0 0.00 0.32 0.00 85 1019.2
20260902102517 66 90 18.0 21.0 0.00 0.32 0.00 84 1019.1
20260902102017 66 90 18.0 21.0 0.00 0.32 0.00 84 1019.0
20260902101516 67 90 18.0 20.0 0.00 0.32 0.00 84 1018.9
20260902101016 67 90 17.0 21.0 0.00 0.32 0.00 83 1019.0
20260902100557 67 90 16.0 19.0 0.00 0.32 0.00 83 1019.0
20260902100016 67 90 16.0 19.0 0.00 0.32 0.00 83 1019.0
20260902095517 67 68 15.0 18.0 0.00 0.32 0.00 82 1019.0
20260902095036 67 90 14.0 17.0 0.00 0.32 0.00 83 1019.0
20260902094536 66 90 15.0 18.0 0.00 0.32 0.00 82 1019.0
20260902094016 66 68 14.0 16.0 0.00 0.32 0.00 83 1018.9
20260902093516 66 68 14.0 16.0 0.00 0.32 0.00 83 1018.9
20260902093016 66 90 14.0 17.0 0.00 0.32 0.00 83 1018.7
20260902092517 67 90 14.0 16.0 0.00 0.32 0.00 83 1018.7
20260902092036 67 90 15.0 17.0 0.00 0.32 0.00 83 1018.7
20260902091516 66 90 14.0 18.0 0.00 0.32 0.00 82 1018.6
20260902091016 66 90 15.0 18.0 0.00 0.32 0.00 82 1018.5
20260902090516 66 90 14.0 17.0 0.00 0.32 0.00 82 1018.6
20260902090016 66 90 13.0 15.0 0.00 0.32 0.00 83 1018.6
20260902085516 66 90 12.0 15.0 0.00 0.32 0.00 84 1018.8
20260902085037 66 90 11.0 14.0 0.00 0.32 0.00 84 1018.8
20260902084536 66 90 11.0 13.0 0.00 0.32 0.00 84 1018.8